GW4477 Weather Reports


time (UTC)temp
C
wind
direction
speed
KPH
gust
KPH
rain 1hr
cm
rain 24hr
cm
rain mn
cm
humidity
%
barometer
mb
20260506233025 7 234 0.0 3.2 0.00 1.07 1.07 85 1020.8
20260506231509 7 202 0.0 3.2 0.00 1.07 1.07 83 1020.6
20260506230017 7 198 3.2 9.7 0.00 1.07 1.07 82 1020.5
20260506224527 7 181 1.6 8.0 0.00 1.07 1.07 81 1020.4
20260506223006 8 140 1.6 4.8 0.00 1.07 1.07 81 1020.5
20260506221507 8 188 1.6 4.8 0.00 1.07 1.07 83 1020.1
20260506220028 7 114 0.0 3.2 0.00 1.07 1.07 84 1020.4
20260506214519 7 144 0.0 6.4 0.00 1.07 1.07 86 1020.3
20260506213022 7 135 3.2 6.4 0.00 1.07 1.07 86 1020.5
20260506211527 7 124 3.2 6.4 0.00 1.07 1.07 87 1020.6
20260506210013 7 140 3.2 11.3 0.00 1.07 1.07 87 1020.6
20260506204518 7 102 4.8 11.3 0.03 1.07 1.07 89 1020.7
20260506203026 7 130 4.8 9.7 0.03 1.07 1.07 90 1020.9
20260506201522 6 111 3.2 12.9 0.03 1.07 1.07 90 1021.3
20260506200010 6 165 3.2 8.0 0.03 1.07 1.07 90 1021.1
20260506194517 6 136 3.2 9.7 0.00 1.04 1.04 90 1021.2
20260506193020 6 134 6.4 11.3 0.00 1.04 1.04 90 1021.2
20260506191524 6 125 1.6 12.9 0.03 1.04 1.04 91 1021.2
20260506190027 6 138 3.2 12.9 0.03 1.04 1.04 91 1021.3
20260506184530 6 131 8.0 16.1 0.03 1.04 1.04 91 1021.4
20260506183029 6 169 6.4 12.9 0.05 1.04 1.04 92 1021.5
20260506181522 5 136 6.4 12.9 0.03 1.02 1.02 93 1021.6
20260506180024 5 115 4.8 11.3 0.03 1.02 1.02 93 1021.7
20260506174510 5 114 1.6 11.3 0.03 1.02 1.02 93 1021.7
20260506173004 5 89 3.2 9.7 0.00 0.99 0.99 93 1021.7
20260506171503 4 69 3.2 8.0 0.00 0.99 0.99 93 1021.6
20260506170006 4 57 1.6 8.0 0.00 0.99 0.99 93 1021.4
20260506164514 4 20 3.2 11.3 0.00 0.99 0.99 93 1021.3
20260506163012 3 72 1.6 9.7 0.03 0.99 0.99 93 1021.3
20260506161504 3 92 3.2 9.7 0.03 0.99 0.99 93 1021.3
20260506160006 3 26 4.8 8.0 0.08 0.99 0.99 93 1021.1
20260506154514 3 102 3.2 8.0 0.10 0.99 0.99 93 1021.0
20260506153010 4 347 3.2 8.0 0.10 0.97 0.97 93 1020.8
20260506151518 4 97 1.6 8.0 0.10 0.97 0.97 93 1020.6
20260506150004 4 103 1.6 6.4 0.05 0.91 0.91 93 1020.7
20260506144507 4 118 3.2 8.0 0.03 0.89 0.89 93 1020.6
20260506143009 3 139 3.2 9.7 0.03 0.86 0.86 93 1020.5
20260506141512 4 132 4.8 12.9 0.03 0.86 0.86 93 1020.4
20260506140030 4 111 6.4 11.3 0.03 0.86 0.86 93 1020.5
20260506134505 3 121 3.2 6.4 0.03 0.86 0.86 93 1020.5
20260506133007 3 107 3.2 6.4 0.00 0.84 0.84 93 1020.1
20260506131534 3 113 3.2 9.7 0.00 0.84 0.84 93 1020.2
20260506130032 3 98 1.6 8.0 0.00 0.84 0.84 93 1019.7
20260506124527 3 48 0.0 0.0 0.00 0.84 0.84 93 1019.8
20260506123006 3 46 0.0 3.2 0.00 0.84 0.84 93 1019.4
20260506121509 3 59 0.0 0.0 0.00 0.84 0.84 93 1019.1
20260506120028 3 70 0.0 0.0 0.00 0.84 0.84 93 1018.9
20260506114522 3 82 1.6 4.8 0.00 0.84 0.84 92 1018.1
20260506113024 3 18 0.0 4.8 0.00 0.84 0.84 92 1017.9
20260506111506 3 28 1.6 4.8 0.03 0.84 0.84 92 1017.7
20260506110012 3 71 0.0 3.2 0.05 0.84 0.84 92 1017.9
20260506104519 3 93 0.0 3.2 0.15 0.84 0.84 92 1018.0
20260506103034 3 124 0.0 4.8 0.18 0.84 0.84 92 1017.8
20260506101525 3 68 1.6 12.9 0.18 0.81 0.81 92 1017.7
20260506100012 3 83 3.2 9.7 0.15 0.79 0.79 92 1017.6
20260506094518 3 124 4.8 11.3 0.08 0.69 0.69 92 1017.6
20260506093030 3 109 3.2 11.3 0.05 0.66 0.66 92 1017.7
20260506091527 3 107 8.0 12.9 0.03 0.64 0.64 91 1017.3
20260506090026 3 130 4.8 9.7 0.03 0.64 0.64 91 1017.2
20260506084503 3 129 3.2 9.7 0.00 0.61 0.61 91 1017.6
20260506083005 3 130 6.4 12.9 0.03 0.61 0.61 91 1017.2
20260506081504 3 133 1.6 9.7 0.10 0.61 0.61 91 1017.4
20260506073003 3 117 4.8 11.3 0.25 0.58 0.58 90 1017.7
20260506071507 3 144 8.0 12.9 0.23 0.51 0.51 90 1017.6
20260506061503 4 130 1.6 9.7 0.23 0.28 0.28 89 1017.8
20260506044504 5 53 1.6 8.0 0.00 0.00 0.00 85 1016.7
20260506043010 5 45 1.6 6.4 0.00 0.00 0.00 84 1017.1
20260506041516 5 109 1.6 11.3 0.00 0.00 0.00 83 1016.7
20260506040019 5 112 4.8 12.9 0.00 0.00 0.00 81 1016.3
20260506034503 5 131 6.4 14.5 0.00 0.00 0.00 78 1016.2
20260506033008 5 156 3.2 16.1 0.00 0.00 0.00 75 1016.3
20260506031514 5 98 6.4 19.3 0.00 0.00 0.00 74 1015.5
20260506030027 5 117 8.0 20.9 0.00 0.00 0.00 74 1015.4
20260506024536 6 82 3.2 16.1 0.00 0.00 0.00 74 1015.0
20260506023003 6 123 6.4 16.1 0.00 0.00 0.00 74 1014.7
20260506021509 6 111 4.8 17.7 0.00 0.00 0.00 72 1014.5
20260506020013 6 106 1.6 16.1 0.00 0.00 0.00 72 1014.5
20260506014521 6 123 3.2 11.3 0.00 0.00 0.00 72 1014.5
20260506013022 6 98 3.2 19.3 0.00 0.00 0.00 71 1014.5
20260506011508 6 113 1.6 16.1 0.00 0.00 0.00 71 1014.3
20260506010012 7 88 3.2 14.5 0.00 0.00 0.00 71 1014.3
20260506004518 7 49 4.8 17.7 0.00 0.00 0.00 70 1014.3
20260506003022 7 32 3.2 12.9 0.00 0.00 0.00 69 1014.3
20260506001532 7 12 4.8 11.3 0.00 0.00 0.00 69 1014.0
20260506000007 7 101 3.2 14.5 0.00 0.00 0.00 68 1014.2
20260505234503 8 360 4.8 17.7 0.00 0.00 0.00 66 1014.3